Location: Boca de Tacagua
(10.5333°N, 66.9833°W)
Time: 14:20:50
(UTC+00:00)

TIGRISAT - Visible Passes

Search period start: 27 March 2023 00:00
Search period end: 06 April 2023 00:00
Orbit: 601 x 682 km, 97.7° (Epoch: 27 March)

Date Brightness Start Highest point End Pass type
(mag) Time Alt. Az. Time Alt. Az. Time Alt. Az.
27 Mar ? 09:03:10 10° SE 09:06:35 24° ENE 09:10:04 10° NNE visible
28 Mar ? 09:26:17 10° SSE 09:30:26 52° ENE 09:34:40 10° N visible
29 Mar ? 09:50:05 10° S 09:54:20 68° W 09:58:40 10° NNW visible
30 Mar ? 08:40:46 10° E 08:42:03 11° ENE 08:43:21 10° ENE visible
31 Mar ? 09:02:22 10° SE 09:05:51 24° ENE 09:09:22 10° NNE visible
01 Apr ? 09:25:30 10° SSE 09:29:41 52° ENE 09:33:57 10° N visible
02 Apr ? 09:49:16 10° S 09:53:33 69° WSW 09:57:56 10° NNW visible
03 Apr ? 08:39:53 10° E 08:41:16 11° ENE 08:42:38 10° NE visible
04 Apr ? 09:01:31 10° SE 09:05:02 24° ENE 09:08:35 10° NNE visible
05 Apr ? 09:24:37 10° SSE 09:28:50 52° ENE 09:33:09 10° N visible
